RYR64GG LIRF-LDZA

Flight info

Callsign RYR64GG
Flight time 0h 58m
Altitude 34000
Route OKUNO DCT ATRUP DCT XAMIT DCT KUDUL DCT RUGOG M986 KOTOR
Aircraft A320/M-SDE3FGHIRWY/LB1

Departure

Time 2026-05-06 10:39
Airport Rome–Fiumicino Leonardo da Vinci International Airport (LIRF)

Arrival

Time 2026-05-06 11:37
Airport Zagreb Franjo Tuđman International Airport (LDZA)
Time Latitude Longitude Altitude Speed Heading
2026-05-06 10:20 41.79631 12.25793 15 ft 0 kts 115°
2026-05-06 10:20 41.79629 12.25781 14 ft 0 kts 116°
2026-05-06 10:32 41.79633 12.25771 14 ft 2 kts 116°
2026-05-06 10:32 41.79641 12.25751 17 ft 2 kts 103°
2026-05-06 10:33 41.79639 12.25729 17 ft 2 kts 31°
2026-05-06 10:33 41.79630 12.25724 17 ft 0 kts 13°
2026-05-06 10:35 41.79685 12.25749 14 ft 14 kts 23°
2026-05-06 10:35 41.79779 12.25807 14 ft 16 kts 26°
2026-05-06 10:36 41.79884 12.25833 14 ft 16 kts 18°
2026-05-06 10:36 41.79988 12.25895 16 ft 17 kts 25°
2026-05-06 10:36 41.80103 12.25967 14 ft 19 kts 25°
2026-05-06 10:36 41.80231 12.26045 14 ft 21 kts 25°
2026-05-06 10:37 41.80366 12.26129 15 ft 17 kts 25°
2026-05-06 10:37 41.80469 12.26178 17 ft 16 kts
2026-05-06 10:37 41.80580 12.26141 16 ft 18 kts 341°
2026-05-06 10:37 41.80686 12.26093 17 ft 9 kts 334°
2026-05-06 10:38 41.80710 12.26030 18 ft 9 kts 261°
2026-05-06 10:38 41.80683 12.25929 17 ft 21 kts 250°
2026-05-06 10:38 41.80543 12.25420 17 ft 93 kts 250°
2026-05-06 10:38 41.80252 12.24383 14 ft 146 kts 248°
2026-05-06 10:39 41.79923 12.22981 379 ft 158 kts 244°
2026-05-06 10:39 41.79649 12.21579 976 ft 154 kts 243°
2026-05-06 10:39 41.79406 12.20147 1475 ft 167 kts 258°
2026-05-06 10:39 41.79309 12.18485 1696 ft 191 kts 260°
2026-05-06 10:40 41.79226 12.16630 2132 ft 202 kts 258°
2026-05-06 10:40 41.78799 12.14882 2778 ft 196 kts 234°
2026-05-06 10:40 41.77901 12.13543 3451 ft 194 kts 220°
2026-05-06 10:40 41.76850 12.12261 3822 ft 216 kts 221°
2026-05-06 10:41 41.75680 12.10818 4273 ft 239 kts 222°
2026-05-06 10:41 41.74434 12.09273 5062 ft 248 kts 223°
2026-05-06 10:41 41.73155 12.07683 5898 ft 254 kts 224°
2026-05-06 10:41 41.71855 12.06070 6785 ft 256 kts 222°
2026-05-06 10:42 41.70330 12.04794 7585 ft 264 kts 202°
2026-05-06 10:42 41.68499 12.04364 8408 ft 273 kts 184°
2026-05-06 10:42 41.66583 12.04362 9224 ft 277 kts 184°
2026-05-06 10:42 41.64638 12.04368 10032 ft 281 kts 184°
2026-05-06 10:43 41.62624 12.04371 10416 ft 301 kts 184°
2026-05-06 10:43 41.60448 12.04642 10613 ft 329 kts 169°
2026-05-06 10:43 41.58324 12.06012 11081 ft 350 kts 146°
2026-05-06 10:44 41.55650 12.11560 12418 ft 373 kts 104°
2026-05-06 10:44 41.55499 12.15041 13121 ft 380 kts 83°
2026-05-06 10:44 41.56284 12.18408 13796 ft 384 kts 61°
2026-05-06 10:44 41.57898 12.21255 14412 ft 386 kts 45°
2026-05-06 10:45 41.59756 12.23875 15033 ft 390 kts 45°
2026-05-06 10:45 41.61637 12.26510 15606 ft 394 kts 45°
2026-05-06 10:45 41.63528 12.29175 16178 ft 398 kts 45°
2026-05-06 10:45 41.65435 12.31886 16758 ft 402 kts 46°
2026-05-06 10:46 41.67351 12.34625 17342 ft 406 kts 46°
2026-05-06 10:46 41.69286 12.37405 17925 ft 410 kts 46°
2026-05-06 10:46 41.71237 12.40210 18489 ft 414 kts 46°
2026-05-06 10:46 41.73207 12.43047 19026 ft 418 kts 46°
2026-05-06 10:47 41.75197 12.45916 19572 ft 422 kts 46°
2026-05-06 10:47 41.77203 12.48806 20088 ft 426 kts 46°
2026-05-06 10:47 41.79230 12.51729 20625 ft 430 kts 46°
2026-05-06 10:47 41.81277 12.54679 21136 ft 434 kts 46°
2026-05-06 10:48 41.83341 12.57655 21647 ft 438 kts 46°
2026-05-06 10:48 41.85430 12.60668 22135 ft 442 kts 45°
2026-05-06 10:48 41.87533 12.63705 22616 ft 446 kts 45°
2026-05-06 10:48 41.89648 12.66768 23090 ft 450 kts 45°
2026-05-06 10:49 41.91785 12.69865 23585 ft 454 kts 45°
2026-05-06 10:49 41.93210 12.71933 23832 ft 457 kts 45°
2026-05-06 10:49 41.95372 12.75074 24205 ft 460 kts 45°
2026-05-06 10:49 41.97556 12.78249 24576 ft 463 kts 45°
2026-05-06 10:50 41.99746 12.81435 24979 ft 466 kts 45°
2026-05-06 10:50 42.01954 12.84648 25359 ft 469 kts 45°
2026-05-06 10:50 42.04922 12.88972 25847 ft 472 kts 45°
2026-05-06 10:50 42.06402 12.91135 26064 ft 474 kts 45°
2026-05-06 10:51 42.08638 12.94412 26444 ft 477 kts 45°
2026-05-06 10:51 42.10888 12.97710 26795 ft 480 kts 45°
2026-05-06 10:51 42.13163 13.01039 27139 ft 482 kts 45°
2026-05-06 10:51 42.15440 13.04372 27474 ft 485 kts 45°
2026-05-06 10:52 42.17729 13.07728 27822 ft 488 kts 45°
2026-05-06 10:52 42.20001 13.11061 28153 ft 491 kts 45°
2026-05-06 10:52 42.22319 13.14467 28472 ft 493 kts 46°
2026-05-06 10:52 42.24638 13.17881 28897 ft 494 kts 46°
2026-05-06 10:53 42.26964 13.21312 29281 ft 496 kts 46°
2026-05-06 10:53 42.29300 13.24768 29602 ft 499 kts 46°
2026-05-06 10:53 42.31638 13.28235 29962 ft 501 kts 46°
2026-05-06 10:53 42.33988 13.31721 30341 ft 501 kts 46°
2026-05-06 10:54 42.36332 13.35194 30746 ft 500 kts 46°
2026-05-06 10:54 42.38677 13.38666 31180 ft 499 kts 46°
2026-05-06 10:54 42.41010 13.42130 31615 ft 497 kts 46°
2026-05-06 10:54 42.43336 13.45590 32047 ft 496 kts 47°
2026-05-06 10:55 42.45656 13.49050 32497 ft 495 kts 47°
2026-05-06 10:55 42.47966 13.52502 32928 ft 494 kts 47°
2026-05-06 10:55 42.50267 13.55944 33407 ft 493 kts 47°
2026-05-06 10:55 42.52562 13.59388 33830 ft 492 kts 47°
2026-05-06 10:56 42.54855 13.62835 33965 ft 493 kts 47°
2026-05-06 10:56 42.59450 13.69748 33977 ft 493 kts 47°
2026-05-06 10:57 42.64046 13.76666 33975 ft 493 kts 47°
2026-05-06 10:57 42.68638 13.83606 33970 ft 494 kts 48°
2026-05-06 10:58 42.73214 13.90542 33971 ft 491 kts 47°
2026-05-06 10:58 42.77768 13.97458 33980 ft 490 kts 47°
2026-05-06 10:59 42.82314 14.04377 33980 ft 489 kts 48°
2026-05-06 10:59 42.86840 14.11286 33979 ft 489 kts 48°
2026-05-06 11:00 42.91343 14.18174 33979 ft 489 kts 48°
2026-05-06 11:00 42.95877 14.25122 33986 ft 489 kts 48°
2026-05-06 11:01 43.00396 14.32060 33985 ft 489 kts 48°
2026-05-06 11:01 43.04919 14.39005 33986 ft 489 kts 48°
2026-05-06 11:02 43.09440 14.45973 33986 ft 489 kts 48°
2026-05-06 11:02 43.13944 14.52963 33999 ft 489 kts 48°
2026-05-06 11:03 43.18443 14.59952 33996 ft 489 kts 47°
2026-05-06 11:03 43.20903 14.63149 33996 ft 487 kts 34°
2026-05-06 11:03 43.23825 14.65442 33996 ft 481 kts 18°
2026-05-06 11:04 43.30189 14.68127 33992 ft 478 kts 12°
2026-05-06 11:04 43.36585 14.70666 33994 ft 479 kts 12°
2026-05-06 11:05 43.42981 14.73232 33991 ft 479 kts 13°
2026-05-06 11:05 43.49386 14.75825 34004 ft 480 kts 13°
2026-05-06 11:06 43.55790 14.78417 33994 ft 480 kts 13°
2026-05-06 11:06 43.62198 14.81011 34004 ft 480 kts 13°
2026-05-06 11:07 43.68606 14.83614 34002 ft 480 kts 13°
2026-05-06 11:07 43.75023 14.86221 34003 ft 480 kts 13°
2026-05-06 11:08 43.81397 14.88819 34001 ft 481 kts 13°
2026-05-06 11:08 43.87806 14.91450 33997 ft 480 kts 13°
2026-05-06 11:09 43.94215 14.94073 33987 ft 480 kts 13°
2026-05-06 11:09 44.00616 14.96696 33993 ft 479 kts 13°
2026-05-06 11:10 44.07020 14.99320 34003 ft 479 kts 13°
2026-05-06 11:10 44.13409 15.01964 34015 ft 479 kts 13°
2026-05-06 11:11 44.19803 15.04621 34026 ft 479 kts 13°
2026-05-06 11:11 44.26198 15.07264 34023 ft 479 kts 13°
2026-05-06 11:12 44.32590 15.09913 34015 ft 479 kts 13°
2026-05-06 11:12 44.38974 15.12573 34040 ft 479 kts 13°
2026-05-06 11:13 44.45365 15.15243 34030 ft 480 kts 13°
2026-05-06 11:13 44.51777 15.17915 34010 ft 481 kts 12°
2026-05-06 11:14 44.58188 15.20593 34005 ft 481 kts 13°
2026-05-06 11:14 44.64615 15.23295 33994 ft 482 kts 13°
2026-05-06 11:15 44.71052 15.26012 33982 ft 482 kts 13°
2026-05-06 11:15 44.74258 15.27364 33377 ft 481 kts 13°
2026-05-06 11:15 44.77465 15.28717 32781 ft 482 kts 12°
2026-05-06 11:15 44.80644 15.30058 32261 ft 483 kts 12°
2026-05-06 11:16 44.83865 15.31417 31745 ft 485 kts 13°
2026-05-06 11:16 44.87096 15.32784 31239 ft 485 kts 13°
2026-05-06 11:16 44.90316 15.34155 30732 ft 482 kts 13°
2026-05-06 11:16 44.93513 15.35518 30257 ft 478 kts 13°
2026-05-06 11:17 44.96683 15.36868 29721 ft 473 kts 13°
2026-05-06 11:17 44.99821 15.38201 29164 ft 469 kts 13°
2026-05-06 11:17 45.02932 15.39525 28612 ft 464 kts 13°
2026-05-06 11:17 45.06006 15.40839 28067 ft 460 kts 13°
2026-05-06 11:18 45.09057 15.42142 27539 ft 456 kts 13°
2026-05-06 11:18 45.12080 15.43437 27029 ft 452 kts 14°
2026-05-06 11:18 45.15078 15.44724 26519 ft 448 kts 14°
2026-05-06 11:18 45.18050 15.45999 26019 ft 444 kts 14°
2026-05-06 11:19 45.21000 15.47262 25507 ft 441 kts 14°
2026-05-06 11:19 45.23930 15.48516 24938 ft 439 kts 14°
2026-05-06 11:19 45.26855 15.49766 24392 ft 437 kts 14°
2026-05-06 11:19 45.29760 15.51010 23858 ft 435 kts 14°
2026-05-06 11:20 45.32650 15.52254 23303 ft 434 kts 14°
2026-05-06 11:20 45.35535 15.53498 22695 ft 432 kts 15°
2026-05-06 11:20 45.38327 15.55073 22058 ft 433 kts 27°
2026-05-06 11:20 45.40793 15.57540 21445 ft 434 kts 42°
2026-05-06 11:21 45.42786 15.60740 20865 ft 432 kts 56°
2026-05-06 11:21 45.44202 15.64486 20294 ft 429 kts 70°
2026-05-06 11:21 45.44967 15.68559 19732 ft 425 kts 84°
2026-05-06 11:21 45.45295 15.72723 19173 ft 423 kts 86°
2026-05-06 11:22 45.45602 15.76878 18625 ft 421 kts 86°
2026-05-06 11:22 45.45893 15.80801 18101 ft 420 kts 86°
2026-05-06 11:22 45.46337 15.84904 17488 ft 419 kts 77°
2026-05-06 11:22 45.47305 15.88817 16890 ft 419 kts 65°
2026-05-06 11:23 45.48804 15.92363 16304 ft 417 kts 53°
2026-05-06 11:23 45.50727 15.95442 15764 ft 414 kts 46°
2026-05-06 11:23 45.52697 15.98393 15265 ft 408 kts 46°
2026-05-06 11:23 45.54635 16.01312 14783 ft 401 kts 46°
2026-05-06 11:24 45.56507 16.04151 14297 ft 383 kts 46°
2026-05-06 11:24 45.58303 16.06886 13824 ft 375 kts 47°
2026-05-06 11:24 45.60052 16.09553 13307 ft 371 kts 47°
2026-05-06 11:24 45.61813 16.12236 12788 ft 369 kts 47°
2026-05-06 11:25 45.63564 16.14903 12272 ft 367 kts 47°
2026-05-06 11:25 45.65311 16.17562 11771 ft 367 kts 47°
2026-05-06 11:25 45.67054 16.20213 11273 ft 365 kts 47°
2026-05-06 11:25 45.68791 16.22854 10784 ft 363 kts 47°
2026-05-06 11:26 45.70514 16.25479 10306 ft 361 kts 47°
2026-05-06 11:26 45.72230 16.28096 9823 ft 360 kts 47°
2026-05-06 11:26 45.73937 16.30705 9298 ft 358 kts 47°
2026-05-06 11:26 45.75637 16.33304 8786 ft 358 kts 47°
2026-05-06 11:27 45.77347 16.35926 8272 ft 363 kts 48°
2026-05-06 11:27 45.79069 16.38574 7754 ft 364 kts 47°
2026-05-06 11:27 45.80784 16.41206 7244 ft 353 kts 47°
2026-05-06 11:27 45.82424 16.43719 6769 ft 337 kts 47°
2026-05-06 11:28 45.83967 16.46085 6629 ft 313 kts 47°
2026-05-06 11:28 45.85657 16.47919 6510 ft 301 kts 23°
2026-05-06 11:28 45.87596 16.48592 6387 ft 276 kts 357°
2026-05-06 11:28 45.89391 16.48169 6258 ft 249 kts 333°
2026-05-06 11:29 45.90822 16.46969 6130 ft 230 kts 312°
2026-05-06 11:29 45.91991 16.45412 5721 ft 233 kts 311°
2026-05-06 11:29 45.93126 16.43694 5194 ft 237 kts 298°
2026-05-06 11:29 45.93803 16.41653 4944 ft 217 kts 279°
2026-05-06 11:30 45.93992 16.39597 4709 ft 206 kts 262°
2026-05-06 11:30 45.93755 16.37598 4504 ft 196 kts 247°
2026-05-06 11:30 45.93164 16.35873 4338 ft 191 kts 232°
2026-05-06 11:30 45.92329 16.34474 4226 ft 180 kts 225°
2026-05-06 11:31 45.91489 16.33182 4066 ft 177 kts 225°
2026-05-06 11:31 45.90653 16.31896 3910 ft 176 kts 225°
2026-05-06 11:31 45.89818 16.30614 3763 ft 176 kts 225°
2026-05-06 11:31 45.88988 16.29339 3617 ft 174 kts 225°
2026-05-06 11:32 45.88154 16.28061 3475 ft 177 kts 225°
2026-05-06 11:32 45.87320 16.26781 3322 ft 173 kts 226°
2026-05-06 11:32 45.86502 16.25527 3174 ft 173 kts 225°
2026-05-06 11:32 45.85662 16.24240 3057 ft 177 kts 225°
2026-05-06 11:33 45.84833 16.22970 2989 ft 172 kts 225°
2026-05-06 11:33 45.84027 16.21736 2856 ft 164 kts 225°
2026-05-06 11:33 45.83275 16.20585 2685 ft 155 kts 224°
2026-05-06 11:33 45.82565 16.19499 2504 ft 146 kts 224°
2026-05-06 11:34 45.81891 16.18468 2320 ft 139 kts 225°
2026-05-06 11:34 45.81197 16.17409 2133 ft 147 kts 226°
2026-05-06 11:34 45.80515 16.16367 1944 ft 143 kts 226°
2026-05-06 11:34 45.79844 16.15343 1755 ft 140 kts 226°
2026-05-06 11:35 45.79182 16.14332 1564 ft 139 kts 226°
2026-05-06 11:35 45.78747 16.13671 1422 ft 139 kts 226°
2026-05-06 11:35 45.78074 16.12683 1196 ft 138 kts 228°
2026-05-06 11:35 45.77423 16.11682 1045 ft 136 kts 226°
2026-05-06 11:36 45.76781 16.10685 925 ft 137 kts 228°
2026-05-06 11:36 45.76108 16.09660 744 ft 140 kts 229°
2026-05-06 11:36 45.75453 16.08646 477 ft 136 kts 227°
2026-05-06 11:36 45.74807 16.07663 367 ft 132 kts 228°
2026-05-06 11:37 45.74278 16.06853 363 ft 88 kts 226°
2026-05-06 11:37 45.73992 16.06412 361 ft 22 kts 227°
2026-05-06 11:37 45.73879 16.06264 361 ft 22 kts 209°
2026-05-06 11:37 45.73795 16.06331 360 ft 15 kts 136°
2026-05-06 11:38 45.73758 16.06462 363 ft 16 kts 64°
2026-05-06 11:38 45.73839 16.06580 361 ft 18 kts 43°
2026-05-06 11:38 45.73928 16.06716 365 ft 20 kts 46°
2026-05-06 11:38 45.74029 16.06866 364 ft 22 kts 46°
2026-05-06 11:39 45.74140 16.07035 359 ft 24 kts 48°
2026-05-06 11:39 45.74216 16.07168 359 ft 13 kts 70°
2026-05-06 11:39 45.74166 16.07273 359 ft 14 kts 139°
2026-05-06 11:39 45.74088 16.07380 365 ft 17 kts 136°
2026-05-06 11:40 45.74094 16.07520 359 ft 18 kts 46°
2026-05-06 11:40 45.74184 16.07654 359 ft 20 kts 47°
2026-05-06 11:40 45.74284 16.07806 359 ft 22 kts 46°
2026-05-06 11:40 45.74309 16.07898 361 ft 9 kts 116°
2026-05-06 11:41 45.74267 16.07959 359 ft 4 kts 137°
2026-05-06 11:41 45.74266 16.07961 359 ft 0 kts 137°